owner,sensor,date,latitude,longitude,sea_surface_height_above_sea_level,qcFlag 
COMPS,ioos:station:USF.COMPS:FHP:1,2018-01-01T00:00:00Z,28.1530,-82.8010,-9.932,1111122 
COMPS,ioos:station:USF.COMPS:FHP:1,2018-01-01T00:06:00Z,28.1530,-82.8010,-9.912,1111122 
COMPS,ioos:station:USF.COMPS:FHP:1,2018-01-01T00:12:00Z,28.1530,-82.8010,-9.893,1111122 
COMPS,ioos:station:USF.COMPS:FHP:1,2018-01-01T00:18:00Z,28.1530,-82.8010,-9.869,1111122 
COMPS,ioos:station:USF.COMPS:FHP:1,2018-01-01T00:24:00Z,28.1530,-82.8010,-9.844,1111122 
COMPS,ioos:station:USF.COMPS:FHP:1,2018-01-01T00:30:00Z,28.1530,-82.8010,-9.817,1111122 
COMPS,ioos:station:USF.COMPS:FHP:1,2018-01-01T00:36:00Z,28.1530,-82.8010,-9.799,1111122 
COMPS,ioos:station:USF.COMPS:FHP:1,2018-01-01T00:42:00Z,28.1530,-82.8010,-9.757,1111122 
COMPS,ioos:station:USF.COMPS:FHP:1,2018-01-01T00:48:00Z,28.1530,-82.8010,-9.74,1111122 
COMPS,ioos:station:USF.COMPS:FHP:1,2018-01-01T00:54:00Z,28.1530,-82.8010,-9.706,1111122 
COMPS,ioos:station:USF.COMPS:FHP:1,2018-01-01T01:00:00Z,28.1530,-82.8010,-9.692,1111122 
COMPS,ioos:station:USF.COMPS:FHP:1,2018-01-01T01:06:00Z,28.1530,-82.8010,-9.663,1111122 
COMPS,ioos:station:USF.COMPS:FHP:1,2018-01-01T01:12:00Z,28.1530,-82.8010,-9.643,1111122 
COMPS,ioos:station:USF.COMPS:FHP:1,2018-01-01T01:18:00Z,28.1530,-82.8010,-9.632,1111122 
COMPS,ioos:station:USF.COMPS:FHP:1,2018-01-01T01:24:00Z,28.1530,-82.8010,-9.623,1111122 
COMPS,ioos:station:USF.COMPS:FHP:1,2018-01-01T01:30:00Z,28.1530,-82.8010,-9.616,1111122 
COMPS,ioos:station:USF.COMPS:FHP:1,2018-01-01T01:36:00Z,28.1530,-82.8010,-9.603,1111122 
COMPS,ioos:station:USF.COMPS:FHP:1,2018-01-01T01:42:00Z,28.1530,-82.8010,-9.587,1111122 
COMPS,ioos:station:USF.COMPS:FHP:1,2018-01-01T01:48:00Z,28.1530,-82.8010,-9.563,1111122 
COMPS,ioos:station:USF.COMPS:FHP:1,2018-01-01T01:54:00Z,28.1530,-82.8010,-9.55,1111122 
COMPS,ioos:station:USF.COMPS:FHP:1,2018-01-01T02:00:00Z,28.1530,-82.8010,-9.55,1111122 
COMPS,ioos:station:USF.COMPS:FHP:1,2018-01-01T02:06:00Z,28.1530,-82.8010,-9.565,1111122 
COMPS,ioos:station:USF.COMPS:FHP:1,2018-01-01T02:12:00Z,28.1530,-82.8010,-9.525,1111122 
COMPS,ioos:station:USF.COMPS:FHP:1,2018-01-01T02:18:00Z,28.1530,-82.8010,-9.55,1111122 
COMPS,ioos:station:USF.COMPS:FHP:1,2018-01-01T02:24:00Z,28.1530,-82.8010,-9.527,1111122 
COMPS,ioos:station:USF.COMPS:FHP:1,2018-01-01T02:30:00Z,28.1530,-82.8010,-9.534,1111122 
COMPS,ioos:station:USF.COMPS:FHP:1,2018-01-01T02:36:00Z,28.1530,-82.8010,-9.477,1111122 
COMPS,ioos:station:USF.COMPS:FHP:1,2018-01-01T02:42:00Z,28.1530,-82.8010,-9.504,1111122 
COMPS,ioos:station:USF.COMPS:FHP:1,2018-01-01T02:48:00Z,28.1530,-82.8010,-9.514,1111122 
COMPS,ioos:station:USF.COMPS:FHP:1,2018-01-01T02:54:00Z,28.1530,-82.8010,-9.528,1111122 
COMPS,ioos:station:USF.COMPS:FHP:1,2018-01-01T03:00:00Z,28.1530,-82.8010,-9.527,1111122 
COMPS,ioos:station:USF.COMPS:FHP:1,2018-01-01T03:06:00Z,28.1530,-82.8010,-9.529,1111122 
COMPS,ioos:station:USF.COMPS:FHP:1,2018-01-01T03:12:00Z,28.1530,-82.8010,-9.496,1111122 
COMPS,ioos:station:USF.COMPS:FHP:1,2018-01-01T03:18:00Z,28.1530,-82.8010,-9.511,1111122 
COMPS,ioos:station:USF.COMPS:FHP:1,2018-01-01T03:24:00Z,28.1530,-82.8010,-9.5,1111122 
COMPS,ioos:station:USF.COMPS:FHP:1,2018-01-01T03:30:00Z,28.1530,-82.8010,-9.493,1111122 
COMPS,ioos:station:USF.COMPS:FHP:1,2018-01-01T03:36:00Z,28.1530,-82.8010,-9.508,1111122 
COMPS,ioos:station:USF.COMPS:FHP:1,2018-01-01T03:42:00Z,28.1530,-82.8010,-9.525,1111122 
COMPS,ioos:station:USF.COMPS:FHP:1,2018-01-01T03:48:00Z,28.1530,-82.8010,-9.519,1111122 
COMPS,ioos:station:USF.COMPS:FHP:1,2018-01-01T03:54:00Z,28.1530,-82.8010,-9.526,1111122 
COMPS,ioos:station:USF.COMPS:FHP:1,2018-01-01T04:00:00Z,28.1530,-82.8010,-9.537,1111122 
COMPS,ioos:station:USF.COMPS:FHP:1,2018-01-01T04:06:00Z,28.1530,-82.8010,-9.544,1111122 
COMPS,ioos:station:USF.COMPS:FHP:1,2018-01-01T04:12:00Z,28.1530,-82.8010,-9.547,1111122 
COMPS,ioos:station:USF.COMPS:FHP:1,2018-01-01T04:18:00Z,28.1530,-82.8010,-9.589,1111122 
COMPS,ioos:station:USF.COMPS:FHP:1,2018-01-01T04:24:00Z,28.1530,-82.8010,-9.588,1111122 
COMPS,ioos:station:USF.COMPS:FHP:1,2018-01-01T04:42:00Z,28.1530,-82.8010,-9.613,1111122 
COMPS,ioos:station:USF.COMPS:FHP:1,2018-01-01T04:48:00Z,28.1530,-82.8010,-9.613,1111122 
COMPS,ioos:station:USF.COMPS:FHP:1,2018-01-01T04:54:00Z,28.1530,-82.8010,-9.651,1111122 
COMPS,ioos:station:USF.COMPS:FHP:1,2018-01-01T05:00:00Z,28.1530,-82.8010,-9.632,1111122 
COMPS,ioos:station:USF.COMPS:FHP:1,2018-01-01T05:06:00Z,28.1530,-82.8010,-9.679,1111122 
COMPS,ioos:station:USF.COMPS:FHP:1,2018-01-01T05:12:00Z,28.1530,-82.8010,-9.666,1111122 
COMPS,ioos:station:USF.COMPS:FHP:1,2018-01-01T05:18:00Z,28.1530,-82.8010,-9.668,1111122 
COMPS,ioos:station:USF.COMPS:FHP:1,2018-01-01T05:24:00Z,28.1530,-82.8010,-9.703,1111122 
COMPS,ioos:station:USF.COMPS:FHP:1,2018-01-01T05:30:00Z,28.1530,-82.8010,-9.726,1111122 
COMPS,ioos:station:USF.COMPS:FHP:1,2018-01-01T05:36:00Z,28.1530,-82.8010,-9.758,1111122 
COMPS,ioos:station:USF.COMPS:FHP:1,2018-01-01T05:48:00Z,28.1530,-82.8010,-9.81,1111122 
COMPS,ioos:station:USF.COMPS:FHP:1,2018-01-01T05:54:00Z,28.1530,-82.8010,-9.826,1111122 
COMPS,ioos:station:USF.COMPS:FHP:1,2018-01-01T06:00:00Z,28.1530,-82.8010,-9.863,1111122 
COMPS,ioos:station:USF.COMPS:FHP:1,2018-01-01T06:06:00Z,28.1530,-82.8010,-9.892,1111122 
COMPS,ioos:station:USF.COMPS:FHP:1,2018-01-01T06:12:00Z,28.1530,-82.8010,-9.922,1111122 
COMPS,ioos:station:USF.COMPS:FHP:1,2018-01-01T06:18:00Z,28.1530,-82.8010,-9.956,1111122 
COMPS,ioos:station:USF.COMPS:FHP:1,2018-01-01T06:24:00Z,28.1530,-82.8010,-9.974,1111122 
COMPS,ioos:station:USF.COMPS:FHP:1,2018-01-03T03:48:00Z,28.1530,-82.8010,-9.987,1111122 
COMPS,ioos:station:USF.COMPS:FHP:1,2018-01-03T03:54:00Z,28.1530,-82.8010,-9.965,1111122 
COMPS,ioos:station:USF.COMPS:FHP:1,2018-01-03T04:00:00Z,28.1530,-82.8010,-9.96,1111122 
COMPS,ioos:station:USF.COMPS:FHP:1,2018-01-03T04:06:00Z,28.1530,-82.8010,-9.939,1111122 
COMPS,ioos:station:USF.COMPS:FHP:1,2018-01-03T04:12:00Z,28.1530,-82.8010,-9.937,1111122 
COMPS,ioos:station:USF.COMPS:FHP:1,2018-01-03T04:18:00Z,28.1530,-82.8010,-9.929,1111122 
COMPS,ioos:station:USF.COMPS:FHP:1,2018-01-03T04:24:00Z,28.1530,-82.8010,-9.912,1111122 
COMPS,ioos:station:USF.COMPS:FHP:1,2018-01-03T04:30:00Z,28.1530,-82.8010,-9.905,1111122 
COMPS,ioos:station:USF.COMPS:FHP:1,2018-01-03T04:36:00Z,28.1530,-82.8010,-9.908,1111122 
COMPS,ioos:station:USF.COMPS:FHP:1,2018-01-03T04:42:00Z,28.1530,-82.8010,-9.891,1111122 
COMPS,ioos:station:USF.COMPS:FHP:1,2018-01-03T04:48:00Z,28.1530,-82.8010,-9.899,1111122 
COMPS,ioos:station:USF.COMPS:FHP:1,2018-01-03T04:54:00Z,28.1530,-82.8010,-9.896,1111122 
COMPS,ioos:station:USF.COMPS:FHP:1,2018-01-03T05:00:00Z,28.1530,-82.8010,-9.895,1111122 
COMPS,ioos:station:USF.COMPS:FHP:1,2018-01-03T05:06:00Z,28.1530,-82.8010,-9.9,1111122 
COMPS,ioos:station:USF.COMPS:FHP:1,2018-01-03T05:12:00Z,28.1530,-82.8010,-9.881,1111122 
COMPS,ioos:station:USF.COMPS:FHP:1,2018-01-03T05:18:00Z,28.1530,-82.8010,-9.901,1111122 
COMPS,ioos:station:USF.COMPS:FHP:1,2018-01-03T05:24:00Z,28.1530,-82.8010,-9.902,1111122 
COMPS,ioos:station:USF.COMPS:FHP:1,2018-01-03T05:30:00Z,28.1530,-82.8010,-9.901,1111122 
COMPS,ioos:station:USF.COMPS:FHP:1,2018-01-03T05:36:00Z,28.1530,-82.8010,-9.915,1111122 
COMPS,ioos:station:USF.COMPS:FHP:1,2018-01-03T05:42:00Z,28.1530,-82.8010,-9.928,1111122 
COMPS,ioos:station:USF.COMPS:FHP:1,2018-01-03T05:48:00Z,28.1530,-82.8010,-9.925,1111122 
COMPS,ioos:station:USF.COMPS:FHP:1,2018-01-03T05:54:00Z,28.1530,-82.8010,-9.928,1111122 
COMPS,ioos:station:USF.COMPS:FHP:1,2018-01-03T06:00:00Z,28.1530,-82.8010,-9.933,1111122 
COMPS,ioos:station:USF.COMPS:FHP:1,2018-01-03T06:06:00Z,28.1530,-82.8010,-9.949,1111122 
COMPS,ioos:station:USF.COMPS:FHP:1,2018-01-03T06:12:00Z,28.1530,-82.8010,-9.946,1111122 
COMPS,ioos:station:USF.COMPS:FHP:1,2018-01-03T06:18:00Z,28.1530,-82.8010,-9.972,1111122 
COMPS,ioos:station:USF.COMPS:FHP:1,2018-01-03T06:24:00Z,28.1530,-82.8010,-9.963,1111122 
COMPS,ioos:station:USF.COMPS:FHP:1,2018-01-03T06:30:00Z,28.1530,-82.8010,-9.989,1111122 
COMPS,ioos:station:USF.COMPS:FHP:1,2018-01-04T03:36:00Z,28.1530,-82.8010,-9.995,1111122 
COMPS,ioos:station:USF.COMPS:FHP:1,2018-01-04T03:42:00Z,28.1530,-82.8010,-9.98,1111122 
COMPS,ioos:station:USF.COMPS:FHP:1,2018-01-04T03:48:00Z,28.1530,-82.8010,-9.963,1111122 
COMPS,ioos:station:USF.COMPS:FHP:1,2018-01-04T03:54:00Z,28.1530,-82.8010,-9.949,1111122 
COMPS,ioos:station:USF.COMPS:FHP:1,2018-01-04T04:00:00Z,28.1530,-82.8010,-9.939,1111122 
COMPS,ioos:station:USF.COMPS:FHP:1,2018-01-04T04:06:00Z,28.1530,-82.8010,-9.922,1111122 
COMPS,ioos:station:USF.COMPS:FHP:1,2018-01-04T04:12:00Z,28.1530,-82.8010,-9.907,1111122 
COMPS,ioos:station:USF.COMPS:FHP:1,2018-01-04T04:18:00Z,28.1530,-82.8010,-9.9,1111122 
COMPS,ioos:station:USF.COMPS:FHP:1,2018-01-04T04:24:00Z,28.1530,-82.8010,-9.887,1111122 
COMPS,ioos:station:USF.COMPS:FHP:1,2018-01-04T04:30:00Z,28.1530,-82.8010,-9.874,1111122 
COMPS,ioos:station:USF.COMPS:FHP:1,2018-01-04T04:36:00Z,28.1530,-82.8010,-9.869,1111122 
COMPS,ioos:station:USF.COMPS:FHP:1,2018-01-04T04:42:00Z,28.1530,-82.8010,-9.864,1111122 
COMPS,ioos:station:USF.COMPS:FHP:1,2018-01-04T04:48:00Z,28.1530,-82.8010,-9.865,1111122 
COMPS,ioos:station:USF.COMPS:FHP:1,2018-01-04T04:54:00Z,28.1530,-82.8010,-9.867,1111122 
COMPS,ioos:station:USF.COMPS:FHP:1,2018-01-04T05:00:00Z,28.1530,-82.8010,-9.864,1111122 
COMPS,ioos:station:USF.COMPS:FHP:1,2018-01-04T05:06:00Z,28.1530,-82.8010,-9.864,1111122 
COMPS,ioos:station:USF.COMPS:FHP:1,2018-01-04T05:12:00Z,28.1530,-82.8010,-9.861,1111122 
COMPS,ioos:station:USF.COMPS:FHP:1,2018-01-04T05:18:00Z,28.1530,-82.8010,-9.866,1111122 
COMPS,ioos:station:USF.COMPS:FHP:1,2018-01-04T05:24:00Z,28.1530,-82.8010,-9.861,1111122 
COMPS,ioos:station:USF.COMPS:FHP:1,2018-01-04T05:30:00Z,28.1530,-82.8010,-9.849,1111122 
COMPS,ioos:station:USF.COMPS:FHP:1,2018-01-04T05:36:00Z,28.1530,-82.8010,-9.844,1111122 
COMPS,ioos:station:USF.COMPS:FHP:1,2018-01-04T05:42:00Z,28.1530,-82.8010,-9.84,1111122 
COMPS,ioos:station:USF.COMPS:FHP:1,2018-01-04T05:48:00Z,28.1530,-82.8010,-9.847,1111122 
COMPS,ioos:station:USF.COMPS:FHP:1,2018-01-04T05:54:00Z,28.1530,-82.8010,-9.835,1111122 
COMPS,ioos:station:USF.COMPS:FHP:1,2018-01-04T06:00:00Z,28.1530,-82.8010,-9.847,1111122 
COMPS,ioos:station:USF.COMPS:FHP:1,2018-01-04T06:06:00Z,28.1530,-82.8010,-9.84,1111122 
COMPS,ioos:station:USF.COMPS:FHP:1,2018-01-04T06:12:00Z,28.1530,-82.8010,-9.847,1111122 
COMPS,ioos:station:USF.COMPS:FHP:1,2018-01-04T06:18:00Z,28.1530,-82.8010,-9.857,1111122 
COMPS,ioos:station:USF.COMPS:FHP:1,2018-01-04T06:24:00Z,28.1530,-82.8010,-9.862,1111122 
COMPS,ioos:station:USF.COMPS:FHP:1,2018-01-04T06:30:00Z,28.1530,-82.8010,-9.868,1111122 
COMPS,ioos:station:USF.COMPS:FHP:1,2018-01-04T06:36:00Z,28.1530,-82.8010,-9.897,1111122 
COMPS,ioos:station:USF.COMPS:FHP:1,2018-01-04T06:42:00Z,28.1530,-82.8010,-9.914,1111122 
COMPS,ioos:station:USF.COMPS:FHP:1,2018-01-04T06:48:00Z,28.1530,-82.8010,-9.937,1111122 
COMPS,ioos:station:USF.COMPS:FHP:1,2018-01-04T06:54:00Z,28.1530,-82.8010,-9.95,1111122 
COMPS,ioos:station:USF.COMPS:FHP:1,2018-01-04T07:00:00Z,28.1530,-82.8010,-9.965,1111122 
COMPS,ioos:station:USF.COMPS:FHP:1,2018-01-04T07:06:00Z,28.1530,-82.8010,-9.972,1111122 
COMPS,ioos:station:USF.COMPS:FHP:1,2018-01-04T07:12:00Z,28.1530,-82.8010,-9.985,1111122 
COMPS,ioos:station:USF.COMPS:FHP:1,2018-01-04T07:18:00Z,28.1530,-82.8010,-9.997,1111122 
COMPS,ioos:station:USF.COMPS:FHP:1,2018-01-05T04:00:00Z,28.1530,-82.8010,-9.982,1111122 
COMPS,ioos:station:USF.COMPS:FHP:1,2018-01-05T04:06:00Z,28.1530,-82.8010,-9.962,1111122 
COMPS,ioos:station:USF.COMPS:FHP:1,2018-01-05T04:12:00Z,28.1530,-82.8010,-9.945,1111122 
COMPS,ioos:station:USF.COMPS:FHP:1,2018-01-05T04:18:00Z,28.1530,-82.8010,-9.929,1111122 
COMPS,ioos:station:USF.COMPS:FHP:1,2018-01-05T04:24:00Z,28.1530,-82.8010,-9.92,1111122 
COMPS,ioos:station:USF.COMPS:FHP:1,2018-01-05T04:30:00Z,28.1530,-82.8010,-9.897,1111122 
COMPS,ioos:station:USF.COMPS:FHP:1,2018-01-05T04:36:00Z,28.1530,-82.8010,-9.884,1111122 
COMPS,ioos:station:USF.COMPS:FHP:1,2018-01-05T04:42:00Z,28.1530,-82.8010,-9.865,1111122 
COMPS,ioos:station:USF.COMPS:FHP:1,2018-01-05T04:48:00Z,28.1530,-82.8010,-9.853,1111122 
COMPS,ioos:station:USF.COMPS:FHP:1,2018-01-05T04:54:00Z,28.1530,-82.8010,-9.838,1111122 
COMPS,ioos:station:USF.COMPS:FHP:1,2018-01-05T05:00:00Z,28.1530,-82.8010,-9.834,1111122 
COMPS,ioos:station:USF.COMPS:FHP:1,2018-01-05T05:06:00Z,28.1530,-82.8010,-9.826,1111122 
COMPS,ioos:station:USF.COMPS:FHP:1,2018-01-05T05:12:00Z,28.1530,-82.8010,-9.818,1111122 
COMPS,ioos:station:USF.COMPS:FHP:1,2018-01-05T05:18:00Z,28.1530,-82.8010,-9.813,1111122 
COMPS,ioos:station:USF.COMPS:FHP:1,2018-01-05T05:24:00Z,28.1530,-82.8010,-9.811,1111122 
COMPS,ioos:station:USF.COMPS:FHP:1,2018-01-05T05:30:00Z,28.1530,-82.8010,-9.817,1111122 
COMPS,ioos:station:USF.COMPS:FHP:1,2018-01-05T05:36:00Z,28.1530,-82.8010,-9.82,1111122 
COMPS,ioos:station:USF.COMPS:FHP:1,2018-01-05T05:42:00Z,28.1530,-82.8010,-9.834,1111122 
COMPS,ioos:station:USF.COMPS:FHP:1,2018-01-05T05:48:00Z,28.1530,-82.8010,-9.837,1111122 
COMPS,ioos:station:USF.COMPS:FHP:1,2018-01-05T05:54:00Z,28.1530,-82.8010,-9.847,1111122 
COMPS,ioos:station:USF.COMPS:FHP:1,2018-01-05T06:00:00Z,28.1530,-82.8010,-9.85,1111122 
COMPS,ioos:station:USF.COMPS:FHP:1,2018-01-05T06:06:00Z,28.1530,-82.8010,-9.855,1111122 
COMPS,ioos:station:USF.COMPS:FHP:1,2018-01-05T06:12:00Z,28.1530,-82.8010,-9.861,1111122 
COMPS,ioos:station:USF.COMPS:FHP:1,2018-01-05T06:18:00Z,28.1530,-82.8010,-9.864,1111122 
COMPS,ioos:station:USF.COMPS:FHP:1,2018-01-05T06:24:00Z,28.1530,-82.8010,-9.881,1111122 
COMPS,ioos:station:USF.COMPS:FHP:1,2018-01-05T06:30:00Z,28.1530,-82.8010,-9.887,1111122 
COMPS,ioos:station:USF.COMPS:FHP:1,2018-01-05T06:36:00Z,28.1530,-82.8010,-9.897,1111122 
COMPS,ioos:station:USF.COMPS:FHP:1,2018-01-05T06:42:00Z,28.1530,-82.8010,-9.921,1111122 
COMPS,ioos:station:USF.COMPS:FHP:1,2018-01-05T06:48:00Z,28.1530,-82.8010,-9.926,1111122 
COMPS,ioos:station:USF.COMPS:FHP:1,2018-01-05T06:54:00Z,28.1530,-82.8010,-9.946,1111122 
COMPS,ioos:station:USF.COMPS:FHP:1,2018-01-05T07:00:00Z,28.1530,-82.8010,-9.96,1111122 
COMPS,ioos:station:USF.COMPS:FHP:1,2018-01-05T07:06:00Z,28.1530,-82.8010,-9.967,1111122 
COMPS,ioos:station:USF.COMPS:FHP:1,2018-01-05T07:12:00Z,28.1530,-82.8010,-9.984,1111122 
COMPS,ioos:station:USF.COMPS:FHP:1,2018-01-05T07:18:00Z,28.1530,-82.8010,-9.988,1111122 
COMPS,ioos:station:USF.COMPS:FHP:1,2018-01-05T07:24:00Z,28.1530,-82.8010,-9.994,1111122 
COMPS,ioos:station:USF.COMPS:FHP:1,2018-01-06T05:36:00Z,28.1530,-82.8010,-9.998,1111122 
COMPS,ioos:station:USF.COMPS:FHP:1,2018-01-06T05:42:00Z,28.1530,-82.8010,-9.985,1111122 
COMPS,ioos:station:USF.COMPS:FHP:1,2018-01-06T05:48:00Z,28.1530,-82.8010,-9.971,1111122 
COMPS,ioos:station:USF.COMPS:FHP:1,2018-01-06T05:54:00Z,28.1530,-82.8010,-9.956,1111122 
COMPS,ioos:station:USF.COMPS:FHP:1,2018-01-06T06:00:00Z,28.1530,-82.8010,-9.949,1111122 
COMPS,ioos:station:USF.COMPS:FHP:1,2018-01-06T06:06:00Z,28.1530,-82.8010,-9.94,1111122 
COMPS,ioos:station:USF.COMPS:FHP:1,2018-01-06T06:12:00Z,28.1530,-82.8010,-9.94,1111122 
COMPS,ioos:station:USF.COMPS:FHP:1,2018-01-06T06:18:00Z,28.1530,-82.8010,-9.932,1111122 
COMPS,ioos:station:USF.COMPS:FHP:1,2018-01-06T06:24:00Z,28.1530,-82.8010,-9.942,1111122 
COMPS,ioos:station:USF.COMPS:FHP:1,2018-01-06T06:30:00Z,28.1530,-82.8010,-9.947,1111122 
COMPS,ioos:station:USF.COMPS:FHP:1,2018-01-06T06:36:00Z,28.1530,-82.8010,-9.951,1111122 
COMPS,ioos:station:USF.COMPS:FHP:1,2018-01-06T06:42:00Z,28.1530,-82.8010,-9.939,1111122 
COMPS,ioos:station:USF.COMPS:FHP:1,2018-01-06T06:48:00Z,28.1530,-82.8010,-9.949,1111122 
COMPS,ioos:station:USF.COMPS:FHP:1,2018-01-06T06:54:00Z,28.1530,-82.8010,-9.939,1111122 
COMPS,ioos:station:USF.COMPS:FHP:1,2018-01-06T07:00:00Z,28.1530,-82.8010,-9.942,1111122 
COMPS,ioos:station:USF.COMPS:FHP:1,2018-01-06T07:06:00Z,28.1530,-82.8010,-9.959,1111122 
COMPS,ioos:station:USF.COMPS:FHP:1,2018-01-06T07:12:00Z,28.1530,-82.8010,-9.979,1111122 
COMPS,ioos:station:USF.COMPS:FHP:1,2018-01-06T07:18:00Z,28.1530,-82.8010,-9.976,1111122 
COMPS,ioos:station:USF.COMPS:FHP:1,2018-01-06T07:24:00Z,28.1530,-82.8010,-9.976,1111122 
COMPS,ioos:station:USF.COMPS:FHP:1,2018-01-06T07:30:00Z,28.1530,-82.8010,-9.976,1111122 
COMPS,ioos:station:USF.COMPS:FHP:1,2018-01-06T07:36:00Z,28.1530,-82.8010,-9.975,1111122 
COMPS,ioos:station:USF.COMPS:FHP:1,2018-01-06T07:42:00Z,28.1530,-82.8010,-9.983,1111122 
COMPS,ioos:station:USF.COMPS:FHP:1,2018-01-06T08:06:00Z,28.1530,-82.8010,-9.996,1111122 
COMPS,ioos:station:USF.COMPS:FHP:1,2018-01-07T20:36:00Z,28.1530,-82.8010,-9.99,1111122 
COMPS,ioos:station:USF.COMPS:FHP:1,2018-01-07T20:42:00Z,28.1530,-82.8010,-9.995,1111122 
COMPS,ioos:station:USF.COMPS:FHP:1,2018-01-07T20:48:00Z,28.1530,-82.8010,-9.99,1111122 
COMPS,ioos:station:USF.COMPS:FHP:1,2018-01-07T20:54:00Z,28.1530,-82.8010,-9.988,1111122 
COMPS,ioos:station:USF.COMPS:FHP:1,2018-01-07T21:00:00Z,28.1530,-82.8010,-9.997,1111122 
COMPS,ioos:station:USF.COMPS:FHP:1,2018-01-07T21:06:00Z,28.1530,-82.8010,-9.99,1111122 
COMPS,ioos:station:USF.COMPS:FHP:1,2018-01-07T21:12:00Z,28.1530,-82.8010,-9.987,1111122 
COMPS,ioos:station:USF.COMPS:FHP:1,2018-01-07T21:18:00Z,28.1530,-82.8010,-9.99,1111122 
COMPS,ioos:station:USF.COMPS:FHP:1,2018-01-07T21:24:00Z,28.1530,-82.8010,-9.984,1111122 
COMPS,ioos:station:USF.COMPS:FHP:1,2018-01-07T21:30:00Z,28.1530,-82.8010,-9.991,1111122 
COMPS,ioos:station:USF.COMPS:FHP:1,2018-01-07T21:36:00Z,28.1530,-82.8010,-9.983,1111122 
COMPS,ioos:station:USF.COMPS:FHP:1,2018-01-07T21:42:00Z,28.1530,-82.8010,-9.994,1111122 
COMPS,ioos:station:USF.COMPS:FHP:1,2018-01-07T21:48:00Z,28.1530,-82.8010,-9.981,1111122 
COMPS,ioos:station:USF.COMPS:FHP:1,2018-01-07T21:54:00Z,28.1530,-82.8010,-9.981,1111122 
COMPS,ioos:station:USF.COMPS:FHP:1,2018-01-07T22:00:00Z,28.1530,-82.8010,-9.981,1111122 
COMPS,ioos:station:USF.COMPS:FHP:1,2018-01-07T22:06:00Z,28.1530,-82.8010,-9.973,1111122 
COMPS,ioos:station:USF.COMPS:FHP:1,2018-01-07T22:12:00Z,28.1530,-82.8010,-9.97,1111122 
COMPS,ioos:station:USF.COMPS:FHP:1,2018-01-07T22:18:00Z,28.1530,-82.8010,-9.971,1111122 
COMPS,ioos:station:USF.COMPS:FHP:1,2018-01-07T22:24:00Z,28.1530,-82.8010,-9.973,1111122 
COMPS,ioos:station:USF.COMPS:FHP:1,2018-01-07T22:30:00Z,28.1530,-82.8010,-9.977,1111122 
COMPS,ioos:station:USF.COMPS:FHP:1,2018-01-07T22:36:00Z,28.1530,-82.8010,-9.98,1111122 
COMPS,ioos:station:USF.COMPS:FHP:1,2018-01-07T22:42:00Z,28.1530,-82.8010,-9.973,1111122 
COMPS,ioos:station:USF.COMPS:FHP:1,2018-01-07T22:48:00Z,28.1530,-82.8010,-9.997,1111122 
COMPS,ioos:station:USF.COMPS:FHP:1,2018-01-08T08:42:00Z,28.1530,-82.8010,-9.995,1111122 
COMPS,ioos:station:USF.COMPS:FHP:1,2018-01-08T08:48:00Z,28.1530,-82.8010,-9.985,1111122 
COMPS,ioos:station:USF.COMPS:FHP:1,2018-01-08T08:54:00Z,28.1530,-82.8010,-9.986,1111122 
COMPS,ioos:station:USF.COMPS:FHP:1,2018-01-08T09:00:00Z,28.1530,-82.8010,-9.968,1111122 
COMPS,ioos:station:USF.COMPS:FHP:1,2018-01-08T09:06:00Z,28.1530,-82.8010,-9.973,1111122 
COMPS,ioos:station:USF.COMPS:FHP:1,2018-01-08T09:12:00Z,28.1530,-82.8010,-9.972,1111122 
COMPS,ioos:station:USF.COMPS:FHP:1,2018-01-08T09:18:00Z,28.1530,-82.8010,-9.977,1111122 
COMPS,ioos:station:USF.COMPS:FHP:1,2018-01-08T09:24:00Z,28.1530,-82.8010,-9.974,1111122 
COMPS,ioos:station:USF.COMPS:FHP:1,2018-01-08T09:30:00Z,28.1530,-82.8010,-9.959,1111122 
COMPS,ioos:station:USF.COMPS:FHP:1,2018-01-08T09:36:00Z,28.1530,-82.8010,-9.951,1111122 
COMPS,ioos:station:USF.COMPS:FHP:1,2018-01-08T09:42:00Z,28.1530,-82.8010,-9.949,1111122 
COMPS,ioos:station:USF.COMPS:FHP:1,2018-01-08T09:48:00Z,28.1530,-82.8010,-9.942,1111122 
COMPS,ioos:station:USF.COMPS:FHP:1,2018-01-08T09:54:00Z,28.1530,-82.8010,-9.923,1111122 
COMPS,ioos:station:USF.COMPS:FHP:1,2018-01-08T10:00:00Z,28.1530,-82.8010,-9.926,1111122 
COMPS,ioos:station:USF.COMPS:FHP:1,2018-01-08T10:06:00Z,28.1530,-82.8010,-9.95,1111122 
COMPS,ioos:station:USF.COMPS:FHP:1,2018-01-08T10:12:00Z,28.1530,-82.8010,-9.942,1111122 
COMPS,ioos:station:USF.COMPS:FHP:1,2018-01-08T10:18:00Z,28.1530,-82.8010,-9.968,1111122 
COMPS,ioos:station:USF.COMPS:FHP:1,2018-01-08T10:24:00Z,28.1530,-82.8010,-9.97,1111122 
COMPS,ioos:station:USF.COMPS:FHP:1,2018-01-08T10:30:00Z,28.1530,-82.8010,-9.986,1111122 
COMPS,ioos:station:USF.COMPS:FHP:1,2018-01-08T19:30:00Z,28.1530,-82.8010,-9.993,1111122 
COMPS,ioos:station:USF.COMPS:FHP:1,2018-01-08T19:36:00Z,28.1530,-82.8010,-9.981,1111122 
COMPS,ioos:station:USF.COMPS:FHP:1,2018-01-08T19:42:00Z,28.1530,-82.8010,-9.958,1111122 
COMPS,ioos:station:USF.COMPS:FHP:1,2018-01-08T19:48:00Z,28.1530,-82.8010,-9.943,1111122 
COMPS,ioos:station:USF.COMPS:FHP:1,2018-01-08T19:54:00Z,28.1530,-82.8010,-9.924,1111122 
COMPS,ioos:station:USF.COMPS:FHP:1,2018-01-08T20:00:00Z,28.1530,-82.8010,-9.913,1111122 
COMPS,ioos:station:USF.COMPS:FHP:1,2018-01-08T20:06:00Z,28.1530,-82.8010,-9.909,1111122 
COMPS,ioos:station:USF.COMPS:FHP:1,2018-01-08T20:12:00Z,28.1530,-82.8010,-9.894,1111122 
COMPS,ioos:station:USF.COMPS:FHP:1,2018-01-08T20:18:00Z,28.1530,-82.8010,-9.886,1111122 
COMPS,ioos:station:USF.COMPS:FHP:1,2018-01-08T20:24:00Z,28.1530,-82.8010,-9.878,1111122 
COMPS,ioos:station:USF.COMPS:FHP:1,2018-01-08T20:30:00Z,28.1530,-82.8010,-9.865,1111122 
COMPS,ioos:station:USF.COMPS:FHP:1,2018-01-08T20:36:00Z,28.1530,-82.8010,-9.856,1111122 
COMPS,ioos:station:USF.COMPS:FHP:1,2018-01-08T20:42:00Z,28.1530,-82.8010,-9.845,1111122 
COMPS,ioos:station:USF.COMPS:FHP:1,2018-01-08T20:48:00Z,28.1530,-82.8010,-9.837,1111122 
COMPS,ioos:station:USF.COMPS:FHP:1,2018-01-08T20:54:00Z,28.1530,-82.8010,-9.821,1111122 
COMPS,ioos:station:USF.COMPS:FHP:1,2018-01-08T21:00:00Z,28.1530,-82.8010,-9.811,1111122 
COMPS,ioos:station:USF.COMPS:FHP:1,2018-01-08T21:06:00Z,28.1530,-82.8010,-9.806,1111122 
COMPS,ioos:station:USF.COMPS:FHP:1,2018-01-08T21:12:00Z,28.1530,-82.8010,-9.785,1111122 
COMPS,ioos:station:USF.COMPS:FHP:1,2018-01-08T21:18:00Z,28.1530,-82.8010,-9.786,1111122 
COMPS,ioos:station:USF.COMPS:FHP:1,2018-01-08T21:24:00Z,28.1530,-82.8010,-9.775,1111122 
COMPS,ioos:station:USF.COMPS:FHP:1,2018-01-08T21:30:00Z,28.1530,-82.8010,-9.77,1111122 
COMPS,ioos:station:USF.COMPS:FHP:1,2018-01-08T21:36:00Z,28.1530,-82.8010,-9.766,1111122 
COMPS,ioos:station:USF.COMPS:FHP:1,2018-01-08T21:42:00Z,28.1530,-82.8010,-9.753,1111122 
COMPS,ioos:station:USF.COMPS:FHP:1,2018-01-08T21:48:00Z,28.1530,-82.8010,-9.754,1111122 
COMPS,ioos:station:USF.COMPS:FHP:1,2018-01-08T21:54:00Z,28.1530,-82.8010,-9.772,1111122 
COMPS,ioos:station:USF.COMPS:FHP:1,2018-01-08T22:00:00Z,28.1530,-82.8010,-9.774,1111122 
COMPS,ioos:station:USF.COMPS:FHP:1,2018-01-08T22:06:00Z,28.1530,-82.8010,-9.778,1111122 
COMPS,ioos:station:USF.COMPS:FHP:1,2018-01-08T22:12:00Z,28.1530,-82.8010,-9.793,1111122 
COMPS,ioos:station:USF.COMPS:FHP:1,2018-01-08T22:18:00Z,28.1530,-82.8010,-9.793,1111122 
COMPS,ioos:station:USF.COMPS:FHP:1,2018-01-08T22:24:00Z,28.1530,-82.8010,-9.801,1111122 
COMPS,ioos:station:USF.COMPS:FHP:1,2018-01-08T22:30:00Z,28.1530,-82.8010,-9.783,1111122 
COMPS,ioos:station:USF.COMPS:FHP:1,2018-01-08T22:36:00Z,28.1530,-82.8010,-9.778,1111122 
COMPS,ioos:station:USF.COMPS:FHP:1,2018-01-08T22:42:00Z,28.1530,-82.8010,-9.779,1111122 
COMPS,ioos:station:USF.COMPS:FHP:1,2018-01-08T22:48:00Z,28.1530,-82.8010,-9.774,1111122 
COMPS,ioos:station:USF.COMPS:FHP:1,2018-01-08T22:54:00Z,28.1530,-82.8010,-9.767,1111122 
COMPS,ioos:station:USF.COMPS:FHP:1,2018-01-08T23:00:00Z,28.1530,-82.8010,-9.765,1111122 
COMPS,ioos:station:USF.COMPS:FHP:1,2018-01-08T23:06:00Z,28.1530,-82.8010,-9.773,1111122 
COMPS,ioos:station:USF.COMPS:FHP:1,2018-01-08T23:12:00Z,28.1530,-82.8010,-9.793,1111122 
COMPS,ioos:station:USF.COMPS:FHP:1,2018-01-08T23:18:00Z,28.1530,-82.8010,-9.792,1111122 
COMPS,ioos:station:USF.COMPS:FHP:1,2018-01-08T23:24:00Z,28.1530,-82.8010,-9.835,1111122 
COMPS,ioos:station:USF.COMPS:FHP:1,2018-01-08T23:30:00Z,28.1530,-82.8010,-9.816,1111122 